Regional Weather Roundup
Issued by NWS Green Bay, WI

Home | Current Version | Previous Version | Graphics & Text | Print | Product List | Glossary Off
Versions: 1 2 3 4 5 6 7 8 9 10 11 12 13 14 15 16 17 18 19 20 21 22 23 24 25 26 27 28 29 30 31 32 33 34 35 36 37 38 39 40 41 42 43 44 45 46 47 48 49 50

000
ASUS43 KGRB 220411
RWRGRB

NORTH-CENTRAL AND NORTHEAST WISCONSIN REGIONAL WEATHER ROUNDUP
NATIONAL WEATHER SERVICE GREEN BAY WI
1000 PM CST SAT JAN 21 2017

WIZ005-009-010>012-018-019-220500-
NORTH CENTRAL WISCONSIN

CITY           SKY/WX    TMP DP  RH WIND       PRES   REMARKS
IRONWOOD       CLOUDY    36  34  93 CALM      29.51R FOG
MANITOWISH WTR FOG       34  34 100 CALM      29.49R VSB 1
ARBOR VITAE    FOG       37  36  96 CALM      29.49S VSB 1
EAGLE RIVER    CLOUDY    34  34 100 CALM      29.49S FOG
LAND O LAKES   CLOUDY    35  35 100 CALM      29.51R
RHINELANDER    FOG       35  35 100 SE3       29.50S VSB 1/4
PHILLIPS       FOG       34  34 100 CALM      29.49S VSB 1/2
ANTIGO         FOG       32  32 100 CALM      29.50S VSB 1/4
TOMAHAWK       FOG       33  33  98 CALM      29.50S VSB 1/4
MERRILL        DRZL/FOG  34  34 100 CALM        N/A  VSB 1/4
$$

WIZ013-073-220500-
NORTHEAST WISCONSIN

CITY           SKY/WX    TMP DP  RH WIND       PRES   REMARKS
IRON MOUNTAIN  FOG       34  32  92 CALM      29.50R VSB 1/4
MARINETTE      NOT AVBL
OCONTO         CLOUDY    33  33  99 CALM      29.54R VSB 1/2
$$

WIZ017-030-035>037-045-220500-
CENTRAL WISCONSIN

CITY           SKY/WX    TMP DP  RH WIND       PRES   REMARKS
MEDFORD        FOG       33  33 100 CALM      29.49R VSB 1/4
WAUSAU         FOG       34  34 100 SE3       29.49S VSB 1/4
MOSINEE        FOG       36  36 100 SE3       29.51R VSB 1/4
MARSHFIELD     FOG       35  34  96 S3        29.49R VSB 1/4
WISC RAPIDS    FOG       38  38 100 S5        29.53R VSB 1/4
STEVENS POINT  FOG       34  34 100 CALM      29.52R VSB 1/4
WAUPACA        FOG       37  36  96 CALM      29.54R VSB 3/4
SHAWANO        FOG       35  34  96 CALM      29.54R VSB 3/4
CLINTONVILLE   FOG       34  34 100 CALM      29.53R VSB 1/2
WAUTOMA        FOG       35  34  96 CALM      29.54S VSB 1/4
$$

WIZ038-039-048-051-220500-
FOX VALLEY

CITY           SKY/WX    TMP DP  RH WIND       PRES   REMARKS
NWS GREEN BAY  FOG       38  38 100 SW3       29.54R VSB 1/2
APPLETON       FOG       36  36 100 CALM      29.52S VSB 1/4
OSHKOSH        FOG       36  36 100 S6        29.54R VSB 1/2
FOND DU LAC    CLOUDY    40  37  89 S5        29.55R FOG
$$

WIZ022-050-052-220500-
EAST CENTRAL WISCONSIN

CITY           SKY/WX    TMP DP  RH WIND       PRES   REMARKS
EPHRAIM        FOG       39  39 100 W5        29.51S VSB 1/4
WASHINGTON ISL FOG       36  36 100 CALM      29.52S VSB 1/4
STURGEON BAY   FOG       39  39 100 SW6       29.54R VSB 1
MANITOWOC      FOG       40  39  97 MISG      29.55S VSB 1/2
SHEBOYGAN      CLOUDY    39  38  96 SW5       29.55R FOG
$$

LMZ563-521-522-541>543-220500-
LAKESHORE

STATION/POSITION TIME  TEMP    WIND        PRES    VSBY  WAVE
                       AIR SEA DIR/SP/G                  HT/PER
                 (UTC) (F)     (DEG/KT/KT) (MB)    (MI)  (FT/S)
SHEBOYGAN LKSHOR 0400   44     220/  5/  7 1000.8R
KEWAUNEE LKSHORE 0348   39      CALM  /  1 1000.2R
NORTHPORT PIER   0340   40     190/  2/  6 1000.0R
SISTER BAY LKSHO 0350   40     240/  3/  5   N/A
MENOMINEE LKSHOR 0348          190/  2/  3  999.4R
$$



USA.gov is the U.S. government's official web portal to all federal, state and local government web resources and services.